QPF
0.00 0.00 0.00 0.00 0.00 0.00 0.00 0.00 0.00 0.00 0.00 0.00 0.00 0.00 0.00 0.00 0.00 0.00 0.00 0.00 0.00 0.00 0.00 0.00 0.00 0.00 0.00 0.00 0.00 0.00 0.00 0.00 0.00 0.00 0.00 0.00 0.00 0.00 0.00 0.00 0.00 0.00 0.00
0.00 0.00 0.00 0.00 0.00 0.00 0.00 0.00 0.00 0.00 0.00 0.00 0.00 0.00 0.00 0.00 0.00 0.00 0.00 0.00 0.00 0.00 0.00 0.00 0.00 0.00 0.00 0.00 0.00 0.00 0.00 0.00 0.00 0.00 0.00 0.00 0.00 0.00 0.00 0.00 0.00 0.00 0.00
0.00 0.00 0.00 0.00 0.00 0.00 0.00 0.00 0.00 0.00 0.00 0.00 0.00 0.00 0.00 0.00 0.00 0.00 0.00 0.00 0.00 0.00 0.00 0.00 0.00 0.00 0.00 0.00 0.00 0.00 0.00 0.00 0.00 0.00 0.00 0.00 0.00 0.00 0.00 0.00 0.00 0.00 0.00
0.00 0.00 0.00 0.00 0.00 0.00 0.00 0.00 0.00 0.00 0.00 0.00 0.00 0.00 0.00 0.00 0.00 0.00 0.00 0.00 0.00 0.00 0.00 0.00 0.00 0.00 0.00 0.00 0.00 0.00 0.00 0.00 0.00 0.00 0.00 0.00 0.00 0.00 0.00 0.00 0.00 0.00 0.00
0.00 0.00 0.00 0.00 0.00 0.00 0.00 0.00 0.00 0.00 0.00 0.00 0.00 0.00 0.00 0.00 0.00 0.00 0.00 0.00 0.00 0.00 0.00 0.00 0.00 0.00 0.00 0.00 0.00 0.00 0.00 0.00 0.00 0.00 0.00 0.00 0.00 0.00 0.00 0.00 0.00 0.00 0.00
0.00 0.00 0.00 0.00 0.00 0.00 0.00 0.00 0.00 0.00 0.00 0.00 0.00 0.00 0.00 0.00 0.00 0.00 0.00 0.00 0.00 0.00 0.00 0.00 0.00 0.00 0.00 0.00 0.00 0.00 0.00 0.00 0.00 0.00 0.00 0.00 0.00 0.00 0.00 0.00 0.00 0.00 0.00
0.00 0.00 0.00 0.00 0.00 0.00 0.00 0.00 0.00 0.00 0.00 0.00 0.00 0.00 0.00 0.00 0.00 0.00 0.00 0.00 0.00 0.00 0.00 0.00 0.00 0.00 0.00 0.00 0.00 0.00 0.00 0.00 0.00 0.00 0.00 0.00 0.00 0.00 0.00 0.00 0.00 0.00 0.00
0.00 0.00 0.00 0.00 0.00 0.00 0.00 0.00 0.00 0.00 0.00 0.00 0.00 0.00 0.00 0.00 0.00 0.00 0.00 0.00 0.00 0.00 0.00 0.00 0.00 0.00 0.00 0.00 0.00 0.00 0.00 0.00 0.00 0.00 0.00 0.00 0.00 0.00 0.00 0.00 0.00 0.00 0.00
0.00 0.00 0.00 0.00 0.00 0.00 0.00 0.00 0.00 0.00 0.00 0.00 0.00 0.00 0.00 0.00 0.00 0.00 0.00 0.00 0.00 0.00 0.00 0.00 0.00 0.00 0.00 0.00 0.00 0.00 0.00 0.00 0.00 0.00 0.00 0.00 0.00 0.00 0.00 0.00 0.00 0.00 0.00
0.00 0.00 0.00 0.00 0.00 0.00 0.00 0.00 0.00 0.00 0.00 0.00 0.00 0.00 0.00 0.00 0.00 0.00 0.00 0.00 0.00 0.00 0.00 0.00 0.00 0.00 0.00 0.00 0.00 0.00 0.00 0.00 0.00 0.00 0.00 0.00 0.00 0.00 0.00 0.00 0.00 0.00 0.00
0.00 0.00 0.00 0.00 0.00 0.00 0.00 0.00 0.00 0.00 0.00 0.00 0.00 0.00 0.00 0.00 0.00 0.00 0.00 0.00 0.00 0.00 0.00 0.00 0.00 0.00 0.00 0.00 0.00 0.00 0.00 0.00 0.00 0.00 0.00 0.00 0.00 0.00 0.00 0.00 0.00 0.00 0.00
0.00 0.00 0.00 0.00 0.00 0.00 0.00 0.00 0.00 0.00 0.00 0.00 0.00 0.00 0.00 0.00 0.00 0.00 0.00 0.00 0.00 0.00 0.00 0.00 0.00 0.00 0.00 0.00 0.00 0.00 0.00 0.00 0.00 0.00 0.00 0.00 0.00 0.00 0.00 0.00 0.00 0.00 0.00
0.00 0.00 0.00 0.00 0.00 0.00 0.00 0.00 0.00 0.00 0.00 0.00 0.00 0.00 0.00 0.00 0.00 0.00 0.00 0.00 0.00 0.00 0.00 0.00 0.00 0.00 0.00 0.00 0.00 0.00 0.00 0.00 0.00 0.00 0.00 0.00 0.00 0.00 0.00 0.00 0.00 0.00 0.00
0.00 0.00 0.00 0.00 0.00 0.00 0.00 0.00 0.00 0.00 0.00 0.00 0.00 0.00 0.00 0.00 0.00 0.00 0.00 0.00 0.00 0.00 0.00 0.00 0.00 0.00 0.00 0.00 0.00 0.00 0.00 0.00 0.00 0.00 0.00 0.00 0.00 0.00 0.00 0.00 0.00 0.00 0.00
0.00 0.00 0.00 0.00 0.00 0.00 0.00 0.00 0.00 0.00 0.00 0.00 0.00 0.00 0.00 0.00 0.00 0.00 0.00 0.00 0.00 0.00 0.00 0.00 0.00 0.00 0.00 0.00 0.00 0.00 0.00 0.00 0.00 0.00 0.00 0.00 0.00 0.00 0.00 0.00 0.00 0.00 0.00
0.00 0.00 0.00 0.00 0.00 0.00 0.00 0.00 0.00 0.00 0.00 0.00 0.00 0.00 0.00 0.00 0.00 0.00 0.00 0.00 0.00 0.00 0.00 0.00 0.00 0.00 0.00 0.00 0.00 0.00 0.00 0.00 0.00 0.00 0.00 0.00 0.00 0.00 0.00 0.00 0.00 0.00 0.00
0.00 0.00 0.00 0.00 0.00 0.00 0.00 0.00 0.00 0.00 0.00 0.00 0.00 0.00 0.00 0.00 0.00 0.00 0.00 0.00 0.00 0.00 0.00 0.00 0.00 0.00 0.00 0.00 0.00 0.00 0.00 0.00 0.00 0.00 0.00 0.00 0.00 0.00 0.00 0.00 0.00 0.00 0.00
0.00 0.00 0.00 0.00 0.00 0.00 0.00 0.00 0.00 0.00 0.00 0.00 0.00 0.00 0.00 0.00 0.00 0.00 0.00 0.00 0.00 0.00 0.00 0.00 0.00 0.00 0.00 0.00 0.00 0.00 0.00 0.00 0.00 0.00 0.00 0.00 0.00 0.00 0.00 0.00 0.00 0.00 0.00
0.00 0.00 0.00 0.00 0.00 0.00 0.00 0.00 0.00 0.00 0.00 0.00 0.00 0.00 0.00 0.00 0.00 0.00 0.00 0.00 0.00 0.00 0.00 0.00 0.00 0.00 0.00 0.00 0.00 0.00 0.00 0.00 0.00 0.00 0.00 0.00 0.00 0.00 0.00 0.00 0.00 0.00 0.00
0.00 0.00 0.00 0.00 0.00 0.00 0.00 0.00 0.00 0.00 0.00 0.00 0.00 0.00 0.00 0.00 0.00 0.00 0.00 0.00 0.00 0.00 0.00 0.00 0.00 0.00 0.00 0.00 0.00 0.00 0.00 0.00 0.00 0.00 0.00 0.00 0.00 0.00 0.00 0.00 0.00 0.00 0.00
0.00 0.00 0.00 0.00 0.00 0.00 0.00 0.00 0.00 0.00 0.00 0.00 0.00 0.00 0.00 0.00 0.00 0.00 0.00 0.00 0.00 0.00 0.00 0.00 0.00 0.00 0.00 0.00 0.00 0.00 0.00 0.00 0.00 0.00 0.00 0.00 0.00 0.00 0.00 0.00 0.00 0.00 0.00
0.00 0.00 0.00 0.00 0.00 0.00 0.00 0.00 0.00 0.00 0.00 0.00 0.00 0.00 0.00 0.00 0.00 0.00 0.00 0.00 0.00 0.00 0.00 0.00 0.00 0.00 0.00 0.00 0.00 0.00 0.00 0.00 0.00 0.00 0.00 0.00 0.00 0.00 0.00 0.00 0.00 0.00 0.00
0.00 0.00 0.00 0.00 0.00 0.00 0.00 0.00 0.00 0.00 0.00 0.00 0.00 0.00 0.00 0.00 0.00 0.00 0.00 0.00 0.00 0.00 0.00 0.00 0.00 0.00 0.00 0.00 0.00 0.00 0.00 0.00 0.00 0.00 0.00 0.00 0.00 0.00 0.00 0.00 0.00 0.00 0.00
0.00 0.00 0.00 0.00 0.00 0.00 0.00 0.00 0.00 0.00 0.00 0.00 0.00 0.00 0.00 0.00 0.00 0.00 0.00 0.00 0.00 0.00 0.00 0.00 0.00 0.00 0.00 0.00 0.00 0.00 0.00 0.00 0.00 0.00 0.00 0.00 0.00 0.00 0.00 0.00 0.00 0.00 0.00
0.00 0.00 0.00 0.00 0.00 0.00 0.00 0.00 0.00 0.00 0.00 0.00 0.00 0.00 0.00 0.00 0.00 0.00 0.00 0.00 0.00 0.00 0.00 0.00 0.00 0.00 0.00 0.00 0.00 0.00 0.00 0.00 0.00 0.00 0.00 0.00 0.00 0.00 0.00 0.00 0.00 0.00 0.00
0.00 0.00 0.00 0.00 0.00 0.00 0.00 0.00 0.00 0.00 0.00 0.00 0.00 0.00 0.00 0.00 0.00 0.00 0.00 0.00 0.00 0.00 0.00 0.00 0.00 0.00 0.00 0.00 0.00 0.00 0.00 0.00 0.00 0.00 0.00 0.00 0.00 0.00 0.00 0.00 0.00 0.00 0.00
MSLP
1015.13 1015.84 1016.40 1016.73 1016.98 1017.17 1017.36 1017.41 1017.45 1017.42 1017.47 1017.53 1017.60 1017.33 1017.29 1016.81 1016.59 1016.39 1016.28 1016.15 1016.45 1016.59 1016.82 1016.78 1016.57 1016.40 1016.49 1016.32 1016.14 1015.89 1015.71 1015.30 1014.70 1014.11 1013.61 1012.74 1012.56 1012.68 1012.62 1012.59 1012.67 1012.72 1012.57
1015.18 1015.81 1016.44 1016.61 1016.85 1017.15 1017.36 1017.34 1017.37 1017.44 1017.52 1017.55 1017.60 1017.49 1017.25 1016.89 1016.68 1016.46 1016.26 1016.05 1016.29 1016.43 1016.58 1016.69 1016.67 1016.57 1016.52 1016.41 1016.32 1016.18 1016.05 1015.65 1015.20 1015.06 1014.39 1013.76 1013.34 1012.98 1012.70 1012.72 1012.85 1012.89 1012.77
1014.92 1015.71 1016.25 1016.57 1016.73 1017.02 1017.28 1017.38 1017.35 1017.38 1017.47 1017.50 1017.46 1017.35 1017.08 1016.85 1016.71 1016.47 1016.26 1015.98 1016.08 1016.18 1016.38 1016.50 1016.49 1016.54 1016.52 1016.42 1016.34 1016.20 1016.29 1016.17 1015.76 1015.62 1015.39 1014.78 1014.45 1013.89 1013.17 1013.03 1012.97 1013.01 1013.02
1014.73 1015.41 1015.90 1016.38 1016.70 1016.94 1017.09 1017.14 1017.19 1017.27 1017.32 1017.32 1017.40 1017.46 1017.31 1017.22 1016.91 1016.50 1016.01 1015.91 1015.77 1015.88 1016.04 1016.25 1016.39 1016.51 1016.45 1016.31 1016.25 1016.15 1016.17 1016.08 1016.22 1015.95 1015.64 1015.50 1015.47 1014.99 1014.30 1013.69 1013.32 1013.20 1013.19
1015.08 1015.53 1015.80 1016.05 1016.26 1016.68 1017.03 1017.07 1017.10 1017.18 1017.18 1017.20 1017.25 1017.29 1017.29 1017.30 1016.86 1016.43 1016.12 1015.89 1015.67 1015.52 1015.75 1016.05 1016.32 1016.38 1016.32 1016.25 1016.25 1016.20 1016.13 1016.01 1016.10 1016.14 1016.11 1015.90 1015.42 1015.06 1014.99 1014.89 1014.53 1014.03 1013.84
1015.14 1015.48 1015.79 1015.98 1016.14 1016.32 1016.67 1016.94 1017.13 1017.15 1017.03 1017.07 1017.09 1017.10 1017.43 1017.33 1017.07 1016.70 1016.49 1016.06 1015.69 1015.57 1015.60 1015.79 1016.11 1016.15 1016.13 1016.05 1015.97 1016.05 1016.08 1016.01 1015.93 1015.99 1015.99 1016.02 1015.87 1015.69 1015.76 1015.57 1015.37 1015.12 1014.41
1014.99 1015.42 1015.82 1016.07 1016.21 1016.32 1016.48 1016.83 1017.00 1017.06 1016.97 1016.98 1017.01 1017.17 1017.22 1017.05 1016.98 1016.79 1016.52 1016.30 1016.00 1015.71 1015.60 1015.70 1015.90 1015.99 1015.84 1015.85 1015.86 1015.90 1015.91 1015.83 1015.88 1015.84 1015.87 1015.79 1015.76 1015.68 1015.58 1015.61 1015.71 1015.58 1014.98
1015.00 1015.31 1015.41 1015.69 1016.01 1016.18 1016.36 1016.60 1016.81 1016.93 1016.85 1016.97 1017.07 1016.98 1016.97 1016.87 1016.75 1016.57 1016.34 1016.15 1016.00 1015.76 1015.62 1015.65 1015.74 1015.69 1015.60 1015.62 1015.67 1015.73 1015.71 1015.68 1015.64 1015.61 1015.52 1015.42 1015.35 1015.31 1015.42 1015.52 1015.79 1015.86 1015.56
1014.55 1014.83 1015.05 1015.40 1015.78 1015.99 1016.09 1016.33 1016.55 1016.67 1016.81 1016.91 1016.95 1016.98 1016.87 1016.79 1016.73 1016.43 1016.19 1015.98 1015.80 1015.61 1015.55 1015.59 1015.57 1015.50 1015.45 1015.47 1015.48 1015.52 1015.47 1015.39 1015.34 1015.34 1015.31 1015.34 1015.21 1015.10 1015.07 1015.18 1015.47 1015.88 1016.08
1013.97 1014.31 1014.69 1015.06 1015.42 1015.55 1015.79 1016.03 1016.32 1016.52 1016.57 1016.68 1016.85 1016.85 1016.76 1016.63 1016.49 1016.31 1016.16 1015.97 1015.73 1015.62 1015.55 1015.52 1015.43 1015.33 1015.28 1015.27 1015.25 1015.27 1015.22 1015.16 1015.09 1015.03 1015.05 1015.01 1014.97 1014.94 1014.96 1014.99 1015.14 1015.38 1015.67
1013.74 1014.13 1014.50 1014.75 1014.96 1015.13 1015.46 1015.83 1016.08 1016.28 1016.53 1016.59 1016.67 1016.65 1016.58 1016.48 1016.39 1016.26 1016.08 1015.91 1015.75 1015.64 1015.53 1015.45 1015.40 1015.38 1015.36 1015.28 1015.25 1015.19 1015.09 1015.03 1014.95 1014.87 1014.88 1014.79 1014.68 1014.74 1014.71 1014.77 1014.92 1015.14 1015.31
1013.17 1013.55 1013.89 1014.28 1014.66 1014.97 1015.11 1015.41 1015.71 1016.00 1016.21 1016.17 1016.29 1016.34 1016.29 1016.23 1016.24 1016.14 1015.95 1015.81 1015.66 1015.51 1015.43 1015.31 1015.26 1015.27 1015.20 1015.16 1015.15 1015.13 1015.00 1014.99 1014.98 1014.80 1014.71 1014.64 1014.37 1014.47 1014.46 1014.54 1014.71 1014.76 1014.84
1013.13 1013.33 1013.52 1013.77 1014.07 1014.43 1014.66 1014.90 1015.24 1015.57 1015.73 1015.79 1015.92 1015.99 1016.00 1016.01 1016.07 1015.99 1015.87 1015.77 1015.65 1015.52 1015.38 1015.25 1015.17 1015.12 1015.09 1015.07 1015.00 1014.96 1014.89 1014.83 1014.72 1014.58 1014.51 1014.44 1014.34 1014.33 1014.30 1014.25 1014.25 1014.27 1014.08
1013.06 1013.12 1013.37 1013.50 1013.68 1013.94 1014.21 1014.54 1014.99 1015.33 1015.56 1015.73 1015.91 1015.96 1016.04 1015.95 1015.93 1015.81 1015.71 1015.64 1015.52 1015.36 1015.21 1015.12 1015.06 1014.99 1014.93 1014.88 1014.83 1014.78 1014.75 1014.67 1014.46 1014.29 1014.11 1013.97 1013.91 1013.91 1013.88 1013.88 1013.90 1013.88 1013.95
1012.38 1012.56 1012.84 1013.20 1013.28 1013.59 1013.90 1014.15 1014.54 1014.85 1015.16 1015.55 1015.72 1015.77 1015.73 1015.70 1015.65 1015.57 1015.50 1015.42 1015.29 1015.12 1015.00 1014.97 1014.90 1014.81 1014.72 1014.60 1014.63 1014.68 1014.71 1014.62 1014.34 1013.99 1013.73 1013.55 1013.38 1013.32 1013.35 1013.47 1013.59 1013.62 1013.54
1011.88 1012.12 1012.39 1012.63 1012.90 1013.12 1013.46 1013.76 1014.06 1014.33 1014.64 1014.92 1015.07 1015.30 1015.40 1015.48 1015.50 1015.49 1015.40 1015.26 1015.10 1015.01 1014.96 1014.90 1014.86 1014.81 1014.63 1014.40 1014.39 1014.41 1014.49 1014.44 1014.22 1013.96 1013.54 1013.25 1013.04 1012.86 1012.69 1012.76 1012.83 1013.12 1013.22
1011.24 1011.76 1012.16 1012.36 1012.50 1012.76 1013.05 1013.55 1013.63 1013.77 1014.12 1014.50 1014.83 1015.01 1015.08 1015.09 1015.09 1015.05 1015.04 1015.08 1015.08 1014.89 1014.83 1014.84 1014.82 1014.74 1014.57 1014.35 1014.22 1014.28 1014.27 1014.08 1013.83 1013.60 1013.26 1013.00 1012.80 1012.60 1012.48 1012.33 1012.20 1012.22 1012.41
1011.02 1011.53 1011.80 1012.03 1012.37 1012.61 1012.96 1013.10 1013.23 1013.48 1013.84 1014.15 1014.37 1014.46 1014.55 1014.63 1014.74 1014.91 1015.03 1015.03 1014.85 1014.79 1014.69 1014.48 1014.34 1014.29 1013.99 1013.79 1013.58 1013.56 1013.64 1013.67 1013.27 1012.97 1012.72 1012.63 1012.44 1012.29 1012.23 1012.07 1012.10 1011.96 1011.89
1010.92 1011.37 1011.68 1011.85 1012.02 1012.40 1012.67 1012.81 1012.94 1013.14 1013.38 1013.62 1013.80 1013.95 1014.06 1014.17 1014.36 1014.49 1014.64 1014.60 1014.55 1014.46 1014.26 1013.98 1013.91 1013.96 1013.55 1013.29 1013.18 1013.13 1013.25 1013.24 1012.86 1012.42 1012.17 1011.98 1011.77 1011.60 1011.59 1011.54 1011.71 1011.45 1011.31
1010.96 1011.37 1011.69 1011.96 1012.21 1012.27 1012.42 1012.65 1012.77 1012.88 1013.05 1013.05 1013.20 1013.29 1013.35 1013.69 1014.05 1014.28 1014.22 1014.16 1014.03 1014.01 1013.96 1013.78 1013.51 1013.32 1013.03 1012.52 1012.47 1012.43 1012.57 1012.59 1012.35 1012.01 1011.69 1011.41 1011.16 1011.03 1010.97 1011.16 1011.32 1011.17 1010.82
1011.20 1011.56 1011.79 1012.16 1012.30 1012.38 1012.51 1012.66 1012.71 1012.73 1012.71 1012.69 1012.71 1013.01 1013.12 1013.25 1013.41 1013.59 1013.54 1013.47 1013.53 1013.29 1013.24 1013.10 1012.78 1012.54 1012.16 1011.81 1011.63 1011.53 1011.64 1011.77 1011.65 1011.58 1011.38 1010.96 1010.64 1010.39 1010.32 1010.38 1010.66 1010.54 1010.43
1011.23 1011.53 1011.85 1012.05 1012.18 1012.31 1012.55 1012.77 1012.81 1012.57 1012.48 1012.54 1012.60 1012.56 1012.48 1012.46 1012.46 1012.70 1012.68 1012.68 1012.81 1012.69 1012.53 1012.31 1011.99 1011.56 1011.19 1011.01 1010.87 1010.75 1010.72 1010.85 1010.99 1010.81 1010.54 1010.31 1010.17 1009.94 1009.82 1009.80 1009.68 1009.51 1009.49
1011.73 1011.88 1012.16 1012.24 1012.17 1012.18 1012.25 1012.63 1012.60 1012.55 1012.53 1012.53 1012.42 1012.36 1012.23 1012.05 1011.96 1011.97 1011.82 1011.79 1011.79 1011.96 1011.83 1011.76 1011.52 1011.10 1010.81 1010.60 1010.44 1010.27 1010.16 1010.05 1009.98 1009.86 1009.65 1009.51 1009.34 1009.20 1009.13 1009.09 1008.96 1008.87 1008.77
1012.45 1012.41 1012.60 1012.72 1012.59 1012.26 1012.22 1012.26 1012.40 1012.41 1012.52 1012.62 1012.58 1012.36 1012.18 1012.00 1011.79 1011.54 1011.51 1011.37 1011.24 1011.25 1011.12 1011.06 1010.85 1010.44 1010.19 1010.16 1010.04 1009.92 1009.75 1009.59 1009.44 1009.28 1009.15 1008.95 1008.72 1008.45 1008.33 1008.33 1008.17 1008.04 1007.94
1013.93 1013.65 1013.66 1013.51 1013.08 1012.78 1012.64 1012.50 1012.33 1012.28 1012.36 1012.28 1012.25 1012.15 1011.87 1011.63 1011.37 1011.10 1010.85 1010.58 1010.23 1010.20 1010.09 1009.86 1009.79 1009.92 1009.63 1009.34 1009.37 1009.30 1009.25 1009.20 1009.10 1008.94 1008.65 1008.42 1008.21 1008.00 1007.74 1007.54 1007.50 1007.22 1007.07
1015.12 1014.85 1014.57 1013.91 1013.32 1013.02 1012.75 1012.53 1012.26 1012.15 1012.09 1011.95 1011.87 1011.73 1011.49 1011.17 1010.85 1010.56 1010.02 1009.59 1009.32 1009.04 1008.78 1008.64 1008.63 1008.56 1008.61 1008.51 1008.50 1008.42 1008.53 1008.39 1008.32 1008.16 1007.93 1007.71 1007.57 1007.41 1007.01 1006.74 1006.66 1006.57 1006.34
Thickness
5675 5669 5663 5658 5654 5649 5645 5643 5641 5639 5637 5634 5631 5631 5629 5630 5630 5628 5625 5622 5614 5605 5598 5593 5590 5587 5582 5578 5574 5570 5566 5568 5571 5574 5580 5591 5596 5599 5602 5607 5611 5615 5620
5665 5660 5653 5649 5645 5641 5637 5636 5634 5631 5628 5626 5623 5622 5622 5623 5622 5621 5619 5617 5608 5601 5594 5588 5585 5583 5579 5576 5572 5569 5566 5567 5569 5570 5572 5581 5589 5595 5600 5604 5607 5610 5614
5658 5650 5643 5640 5636 5632 5629 5627 5626 5624 5621 5619 5617 5616 5616 5616 5615 5614 5613 5611 5602 5596 5589 5584 5580 5578 5576 5573 5571 5569 5565 5562 5565 5566 5570 5574 5575 5583 5594 5599 5603 5606 5608
5652 5643 5636 5629 5625 5622 5621 5619 5618 5615 5614 5612 5609 5607 5606 5605 5606 5607 5608 5604 5598 5593 5586 5580 5576 5574 5572 5571 5570 5569 5566 5564 5560 5563 5567 5569 5571 5572 5577 5590 5597 5600 5603
5638 5629 5622 5620 5619 5614 5611 5610 5609 5608 5606 5605 5602 5600 5599 5597 5598 5601 5599 5596 5594 5590 5584 5577 5572 5570 5569 5568 5566 5565 5564 5563 5560 5559 5560 5563 5568 5572 5574 5573 5579 5587 5591
5631 5623 5616 5613 5610 5608 5606 5603 5600 5599 5599 5597 5595 5594 5590 5589 5590 5591 5589 5587 5587 5585 5580 5574 5569 5566 5566 5565 5564 5563 5562 5562 5561 5559 5558 5558 5562 5562 5563 5564 5568 5571 5579
5625 5617 5610 5605 5606 5604 5601 5597 5594 5591 5591 5589 5588 5585 5583 5584 5583 5582 5580 5580 5579 5578 5576 5572 5567 5564 5563 5561 5559 5559 5558 5558 5558 5558 5557 5557 5557 5559 5562 5563 5559 5561 5567
5619 5613 5610 5605 5602 5599 5596 5592 5588 5585 5584 5582 5580 5579 5578 5577 5575 5574 5574 5573 5573 5573 5572 5568 5565 5562 5561 5558 5557 5555 5554 5554 5553 5554 5554 5555 5556 5557 5556 5555 5552 5549 5553
5617 5612 5608 5602 5597 5594 5591 5587 5583 5580 5578 5575 5572 5571 5570 5569 5567 5568 5568 5568 5568 5568 5566 5564 5562 5561 5559 5557 5555 5553 5551 5551 5550 5548 5548 5548 5549 5550 5550 5550 5548 5545 5538
5616 5610 5604 5599 5595 5592 5588 5584 5579 5575 5573 5570 5566 5564 5563 5562 5562 5562 5562 5562 5562 5562 5561 5559 5558 5557 5556 5555 5553 5551 5550 5549 5547 5546 5544 5543 5542 5541 5541 5540 5538 5536 5534
5612 5607 5601 5597 5593 5589 5584 5578 5574 5570 5566 5563 5560 5558 5556 5556 5555 5555 5556 5555 5555 5555 5554 5554 5552 5551 5549 5548 5547 5545 5544 5543 5542 5541 5539 5538 5537 5534 5533 5531 5529 5527 5525
5610 5605 5599 5594 5589 5584 5580 5574 5569 5564 5561 5559 5556 5554 5552 5551 5549 5548 5549 5549 5548 5548 5547 5546 5545 5543 5542 5540 5539 5537 5536 5534 5532 5532 5531 5530 5531 5528 5525 5523 5520 5518 5516
5602 5599 5594 5590 5585 5579 5575 5569 5564 5558 5555 5552 5549 5547 5546 5544 5542 5540 5540 5539 5539 5538 5537 5536 5534 5533 5531 5529 5528 5526 5525 5523 5522 5522 5521 5519 5519 5517 5515 5514 5511 5509 5509
5593 5590 5586 5582 5578 5573 5568 5562 5557 5551 5547 5544 5541 5538 5536 5534 5532 5531 5531 5529 5528 5527 5526 5524 5522 5520 5518 5517 5515 5513 5511 5510 5510 5510 5509 5508 5507 5505 5504 5502 5500 5498 5493
5591 5584 5580 5574 5570 5565 5561 5556 5550 5545 5540 5534 5530 5528 5527 5525 5523 5522 5520 5518 5516 5515 5514 5511 5509 5507 5506 5505 5502 5499 5497 5496 5496 5497 5497 5496 5495 5494 5492 5490 5485 5483 5480
5582 5578 5574 5569 5563 5557 5551 5546 5541 5536 5532 5526 5522 5519 5515 5512 5510 5507 5506 5505 5504 5502 5500 5497 5494 5492 5491 5491 5489 5487 5483 5480 5480 5480 5480 5480 5479 5478 5478 5475 5473 5467 5462
5575 5569 5563 5557 5553 5547 5542 5534 5530 5526 5520 5514 5509 5507 5504 5501 5498 5495 5492 5490 5487 5486 5483 5480 5477 5474 5471 5472 5471 5468 5465 5465 5464 5463 5463 5462 5460 5459 5457 5457 5455 5452 5447
5563 5556 5549 5544 5537 5531 5525 5522 5518 5512 5506 5500 5496 5493 5490 5486 5482 5479 5475 5473 5471 5469 5465 5464 5461 5458 5457 5456 5456 5454 5450 5447 5447 5447 5447 5444 5441 5438 5437 5437 5433 5430 5426
5545 5537 5532 5529 5523 5516 5510 5505 5500 5494 5490 5487 5482 5477 5473 5469 5465 5461 5457 5455 5453 5450 5448 5447 5444 5441 5440 5439 5437 5436 5431 5429 5429 5429 5428 5426 5424 5420 5418 5418 5412 5413 5408
5529 5522 5516 5510 5504 5499 5493 5487 5483 5478 5474 5470 5466 5462 5459 5453 5446 5441 5439 5435 5434 5432 5427 5427 5425 5424 5424 5422 5420 5417 5414 5411 5411 5409 5408 5406 5404 5402 5400 5394 5391 5392 5389
5510 5502 5496 5489 5484 5480 5473 5466 5462 5459 5457 5454 5450 5443 5438 5434 5429 5425 5421 5420 5417 5416 5413 5411 5409 5407 5405 5404 5401 5397 5394 5391 5392 5389 5388 5385 5384 5383 5381 5376 5370 5368 5366
5490 5483 5473 5467 5462 5459 5451 5445 5440 5440 5437 5433 5428 5425 5422 5419 5416 5411 5407 5404 5400 5397 5395 5394 5394 5394 5392 5389 5385 5380 5376 5371 5369 5369 5369 5367 5365 5363 5360 5356 5352 5349 5343
5465 5460 5452 5447 5443 5438 5432 5424 5421 5419 5416 5411 5407 5404 5402 5399 5396 5393 5392 5390 5385 5379 5380 5377 5376 5376 5373 5369 5365 5361 5357 5354 5350 5350 5349 5348 5347 5343 5339 5335 5330 5324 5320
5437 5434 5427 5421 5417 5415 5412 5405 5401 5397 5394 5389 5385 5383 5381 5378 5376 5375 5372 5369 5366 5361 5359 5356 5353 5354 5353 5350 5343 5339 5335 5334 5330 5327 5327 5327 5324 5321 5316 5309 5306 5302 5298
5399 5399 5395 5394 5393 5390 5386 5384 5381 5377 5373 5370 5367 5365 5364 5360 5359 5358 5355 5351 5353 5346 5342 5341 5335 5330 5333 5334 5325 5320 5316 5314 5308 5302 5303 5301 5297 5294 5292 5288 5285 5283 5281
5365 5365 5366 5369 5370 5368 5365 5362 5361 5358 5354 5355 5351 5348 5346 5344 5342 5339 5342 5343 5339 5338 5335 5332 5326 5321 5314 5313 5305 5300 5294 5294 5286 5280 5280 5280 5276 5273 5273 5271 5268 5265 5264